Location: Baia Mare
(47.6567°N, 23.5850°E)
Time: 16:07:18
(UTC+03:00)

ISS - Pass Details

Date: 20 May 2018
Orbit: 402 x 407 km, 51.6° (Epoch: 24 May)

Event Time Altitude Azimuth Distance (km) Brightness Sun altitude
Rises 22:32:40 0° 214° (SW) 2,308 -0.2 -12.3°
Reaches altitude 10° 22:34:55 10° 201° (SSW) 1,451 -1.3 -12.6°
Maximum altitude 22:37:43 27° 142° (SE) 820 -2.9 -12.9°
Drops below altitude 10° 22:40:31 10° 83° (E) 1,457 -1.3 -13.2°
Sets 22:42:47 0° 70° (ENE) 2,319 -0.2 -13.4°
